User: anonymous   Login
Location: Unspecified
(0.0000°N, 0.0000°E)
Time: 21:50:10
(UTC+00:00)
Language:

Explorer 7 - Orbit

View from above orbital plane
View from above orbital plane
View from above satellite
View from above satellite

Ground track
Ground track

The orbit data is extracted from the following two-line orbital elements,

1 00022U 59009A   24197.48285513  .00013331  00000-0  75728-3 0  9999
2 00022  50.2781 277.6281 0111273 219.7573 139.5187 15.08016589693679
Epoch (UTC): 15 July 2024 11:35:18
Eccentricity: 0.0111273
inclination: 50.2781°
perigee height: 465 km
apogee height: 619 km
right ascension of ascending node: 277.6281°
argument of perigee: 219.7573°
revolutions per day: 15.08016589
mean anomaly at epoch: 139.5187°
orbit number at epoch: 69367

The dashed part of the orbit path shows where the satellite is in the earth's shadow,  

DLR